Flag for Austria Weather past 2 weeks in Kirchdorf an der Krems, Upper Austria, Austria

Now
38 °F

Overcast.


Feels Like: 38 °F
Forecast: 35 / 40 °F
Wind: 2 mph from East

Location: Kremsmuenster

Current Time: Mar 31, 2015 at 9:34:21 AM

Latest Report: Mar 31, 2015 at 8:00 AM


Visibility: 19 mi

Pressure: 29.63 "Hg

Humidity: 95%

Dew point: 37 °F

Location of Kirchdorf an der KremsLocation

Historic Weather in Kirchdorf an der Krems — Graph

°F

Kirchdorf an der Krems temperature yesterday

Maximum temperature yesterday: 51 °F (at 3:00 AM)
Minimum temperature yesterday: 40 °F (at 6:00 PM)
Average temperature yesterday: 45 °F

Past Weeks' High & Low Weather Summary

 TemperatureHumidityPressure
High60 °F (Mar 16, 2:00 PM)97% (Mar 24, 3:00 AM)30.34 "Hg (Mar 24, 3:00 AM)
Low31 °F (Mar 21, 6:00 AM)23% (Mar 19, 5:00 PM)29.50 "Hg (Mar 30, 5:00 AM)
Average45 °F71%30.02 "Hg
* Reported Mar 16 7:00 AM — Mar 31 8:00 AM, Kirchdorf an der Krems, Weather by CustomWeather, © 2015

Note: Actual official high and low records may vary slightly from our data, if they occured in-between our weather recording intervals... More about our weather records

Advertising

Kirchdorf an der Krems weather history for previous 24 hours

 ConditionsComfort  
Time TempWeatherWind HumidityBarometerVisibility
8:00 AM
Tue, Mar 31
38 °FOvercast.2 mph95%29.63 "Hg19 mi
7:00 AM38 °FRain. Low clouds.3 mph94%29.69 "Hg6 mi
6:00 AM39 °FFog.3 mph90%29.76 "HgN/A
4:00 AM41 °FQuite cool.3 mph70%29.89 "HgN/A
3:00 AM41 °FQuite cool.5 mph70%29.91 "HgN/A
2:00 AM40 °FQuite cool.7 mph76%29.94 "HgN/A
1:00 AM41 °FQuite cool.5 mph73%29.96 "HgN/A
12:00 AM42 °FQuite cool.2 mph72%29.96 "HgN/A
11:00 PM
Mon, Mar 30
42 °FQuite cool.7 mph68%29.94 "HgN/A
10:00 PM41 °FQuite cool.6 mph81%29.91 "HgN/A
9:00 PM41 °FQuite cool.9 mph77%29.89 "HgN/A
8:00 PM41 °FRain. Overcast.7 mph81%29.84 "Hg2 mi
7:00 PM42 °FQuite cool.9 mph82%29.80 "HgN/A
6:00 PM40 °FQuite cool.7 mph89%29.75 "HgN/A
5:00 PM45 °FPartly sunny.9 mph74%29.71 "Hg7 mi
4:00 PM43 °FQuite cool.9 mph81%29.71 "HgN/A
3:00 PMN/APassing clouds.18 mphN/AN/A1 mi
2:00 PM43 °FQuite cool.8 mph81%29.66 "HgN/A
1:00 PM42 °FQuite cool.8 mph83%29.65 "HgN/A
12:00 PM45 °FFog.8 mph86%29.61 "HgN/A
11:00 AM46 °FRain. Low clouds.9 mph89%29.56 "Hg2 mi
10:00 AM46 °FFog.6 mph93%29.54 "HgN/A
9:00 AM43 °FFog.1 mph94%29.57 "HgN/A
Weather by CustomWeather, © 2015

See weather overviewHow to use our weather pages